Location: Unspecified
(0.0000°N, 0.0000°E)
Time: 21:30:55

ISS - Pass Details

Date: 19 March 2018
Orbit: 403 x 406 km, 51.6° (Epoch: 19 March)

Event Time Altitude Azimuth Distance (km) Brightness Sun altitude
Rises 19:39:45 0° 236° (WSW) 2,316 0.9 -23.0°
Reaches altitude 10° 19:42:07 10° 252° (WSW) 1,455 0.0 -23.6°
Maximum altitude 19:44:44 22° 306° (NW) 927 -1.5 -24.3°
Enters shadow 19:45:25 21° 325° (NW) 971 -1.6 -24.4°
